Soldotna Airport
PASX : now visible

Airfield :











YOU CAN JOIN US ON...

 
LOGIN :

Register | Disclaimer

   EN    FR    IT 

 









Legend :    VFR   Marginal VFR   IFR   Intensive IFR   Very Intensive IFR
Visi :
Ceiling :
>= 8 km
>= 3000ft
5 to 8 km
1000 to 3000 ft
1500m to 5 km
500 to 1000 ft
800 to 1500m
200 to 500 ft
< 800m
< 200 ft
Symbols :   Thunderstorms  Fog  Heavy snow  Heavy precipitations  Wind > 20 kt






- Airport Elevation : 113 ft
- IATA code : SXQ


PASX - Soldotna

CURRENT METAR :
  • 271456Z AUTO 03012G19KT 10SM CLR 09/04 A2915 RMK AO2 SLP880 T00940044 58051

EXPIRED METARs :
  • 271356Z AUTO 05015G19KT 10SM CLR 09/04 A2921 RMK AO2 SLP901 T00890044
  • 271256Z AUTO 04005KT 10SM CLR 08/06 A2926 RMK AO2 SLP918 T00830056

TAF N/A
PAZA FIR / North America



MET'MAP, your aeronautical weather chart ! - Copyright ORBIFLY December 2007 - Disclaimer

ORBIFLY MET'MAP TEAM :

Programming & Development : Alexandra Zaïnal
Concept & original design : Baudouin d'Aumeries
Assistance for programming : Marc-Olivier Méhu
Technical & hardware support : Manuel Goepfert

Contact : metmap@orbifly.com




SOURCES & CREDITS :

   NOAA       Earth
Advisory